Year,Month,Day,Hour,Minute,Value (Times are PST for windspeed in km/hr)
2013,03,20,00,00,15.00
2013,03,20,00,01,12.80
2013,03,20,00,02,15.10
2013,03,20,00,03,20.70
2013,03,20,00,04,12.60
2013,03,20,00,05,12.00
2013,03,20,00,06,9.30
2013,03,20,00,07,17.50
2013,03,20,00,08,10.90
2013,03,20,00,09,11.90
2013,03,20,00,10,10.10
2013,03,20,00,11,17.70
2013,03,20,00,12,13.40
2013,03,20,00,13,10.70
2013,03,20,00,14,7.30
2013,03,20,00,15,9.30
2013,03,20,00,16,9.60
2013,03,20,00,17,11.40
2013,03,20,00,18,7.50
2013,03,20,00,19,10.00
2013,03,20,00,20,7.60
2013,03,20,00,21,10.10
2013,03,20,00,22,6.40
2013,03,20,00,23,9.30
2013,03,20,00,24,15.90
2013,03,20,00,25,13.80
2013,03,20,00,26,12.70
2013,03,20,00,27,9.60
2013,03,20,00,28,10.00
2013,03,20,00,29,10.30
2013,03,20,00,30,7.20
2013,03,20,00,31,10.20
2013,03,20,00,32,11.60
2013,03,20,00,33,11.50
2013,03,20,00,34,13.60
2013,03,20,00,35,11.30
2013,03,20,00,36,4.90
2013,03,20,00,37,10.10
2013,03,20,00,38,13.70
2013,03,20,00,39,11.60
2013,03,20,00,40,9.50
2013,03,20,00,41,12.90
2013,03,20,00,42,13.40
2013,03,20,00,43,8.50
2013,03,20,00,44,7.60
2013,03,20,00,45,7.90
2013,03,20,00,46,14.50
2013,03,20,00,47,14.50
2013,03,20,00,48,12.10
2013,03,20,00,49,14.70
2013,03,20,00,50,15.50
2013,03,20,00,51,10.30
2013,03,20,00,52,14.30
2013,03,20,00,53,14.20
2013,03,20,00,54,8.30
2013,03,20,00,55,11.80
2013,03,20,00,56,9.60
2013,03,20,00,57,8.80
2013,03,20,00,58,11.90
2013,03,20,00,59,8.60
2013,03,20,01,00,9.30
2013,03,20,01,01,7.30
2013,03,20,01,02,9.90
2013,03,20,01,03,13.20
2013,03,20,01,04,9.60
2013,03,20,01,05,8.90
2013,03,20,01,06,7.70
2013,03,20,01,07,13.00
2013,03,20,01,08,13.60
2013,03,20,01,09,11.60
2013,03,20,01,10,10.10
2013,03,20,01,11,7.80
2013,03,20,01,12,12.50
2013,03,20,01,13,15.80
2013,03,20,01,14,15.20
2013,03,20,01,15,15.90
2013,03,20,01,16,10.90
2013,03,20,01,17,8.40
2013,03,20,01,18,12.10
2013,03,20,01,19,11.10
2013,03,20,01,20,14.00
2013,03,20,01,21,7.00
2013,03,20,01,22,9.20
2013,03,20,01,23,13.20
2013,03,20,01,24,7.30
2013,03,20,01,25,10.40
2013,03,20,01,26,14.90
2013,03,20,01,27,11.40
2013,03,20,01,28,9.80
2013,03,20,01,29,11.80
2013,03,20,01,30,14.80
2013,03,20,01,31,13.60
2013,03,20,01,32,12.90
2013,03,20,01,33,13.00
2013,03,20,01,34,16.40
2013,03,20,01,35,10.60
2013,03,20,01,36,11.50
2013,03,20,01,37,12.60
2013,03,20,01,38,14.60
2013,03,20,01,39,12.60
2013,03,20,01,40,13.50
2013,03,20,01,41,15.50
2013,03,20,01,42,13.80
2013,03,20,01,43,11.80
2013,03,20,01,44,15.60
2013,03,20,01,45,15.00
2013,03,20,01,46,9.20
2013,03,20,01,47,13.90
2013,03,20,01,48,9.10
2013,03,20,01,49,12.40
2013,03,20,01,50,11.70
2013,03,20,01,51,13.10
2013,03,20,01,52,14.20
2013,03,20,01,53,14.00
2013,03,20,01,54,12.00
2013,03,20,01,55,14.20
2013,03,20,01,56,6.90
2013,03,20,01,57,9.40
2013,03,20,01,58,14.60
2013,03,20,01,59,13.10
2013,03,20,02,00,12.20
2013,03,20,02,01,8.40
2013,03,20,02,02,13.80
2013,03,20,02,03,10.80
2013,03,20,02,04,12.60
2013,03,20,02,05,7.80
2013,03,20,02,06,8.50
2013,03,20,02,07,12.50
2013,03,20,02,08,8.60
2013,03,20,02,09,10.30
2013,03,20,02,10,10.90
2013,03,20,02,11,10.50
2013,03,20,02,12,11.70
2013,03,20,02,13,15.20
2013,03,20,02,14,19.90
2013,03,20,02,15,8.80
2013,03,20,02,16,14.10
2013,03,20,02,17,19.60
2013,03,20,02,18,13.40
2013,03,20,02,19,17.90
2013,03,20,02,20,12.30
2013,03,20,02,21,8.30
2013,03,20,02,22,9.00
2013,03,20,02,23,10.80
2013,03,20,02,24,14.20
2013,03,20,02,25,14.10
2013,03,20,02,26,16.60
2013,03,20,02,27,12.30
2013,03,20,02,28,12.30
2013,03,20,02,29,7.40
2013,03,20,02,30,11.70
2013,03,20,02,31,11.20
2013,03,20,02,32,12.50
2013,03,20,02,33,12.50
2013,03,20,02,34,11.60
2013,03,20,02,35,12.50
2013,03,20,02,36,8.50
2013,03,20,02,37,13.20
2013,03,20,02,38,13.70
2013,03,20,02,39,11.20
2013,03,20,02,40,11.40
2013,03,20,02,41,9.40
2013,03,20,02,42,13.10
2013,03,20,02,43,13.70
2013,03,20,02,44,10.70
2013,03,20,02,45,12.60
2013,03,20,02,46,10.20
2013,03,20,02,47,6.50
2013,03,20,02,48,10.50
2013,03,20,02,49,7.90
2013,03,20,02,50,7.70
2013,03,20,02,51,10.90
2013,03,20,02,52,12.10
2013,03,20,02,53,15.10
2013,03,20,02,54,10.10
2013,03,20,02,55,7.40
2013,03,20,02,56,7.40
2013,03,20,02,57,9.90
2013,03,20,02,58,9.70
2013,03,20,02,59,11.70
2013,03,20,03,00,12.00
2013,03,20,03,01,9.10
2013,03,20,03,02,9.70
2013,03,20,03,03,8.10
2013,03,20,03,04,9.60
2013,03,20,03,05,6.60
2013,03,20,03,06,8.70
2013,03,20,03,07,10.30
2013,03,20,03,08,13.00
2013,03,20,03,09,12.60
2013,03,20,03,10,8.70
2013,03,20,03,11,12.30
2013,03,20,03,12,10.90
2013,03,20,03,13,8.20
2013,03,20,03,14,5.60
2013,03,20,03,15,10.60
2013,03,20,03,16,11.30
2013,03,20,03,17,7.80
2013,03,20,03,18,13.30
2013,03,20,03,19,11.00
2013,03,20,03,20,9.10
2013,03,20,03,21,10.50
2013,03,20,03,22,9.80
2013,03,20,03,23,9.50
2013,03,20,03,24,8.50
2013,03,20,03,25,13.30
2013,03,20,03,26,9.70
2013,03,20,03,27,12.50
2013,03,20,03,28,12.00
2013,03,20,03,29,9.70
2013,03,20,03,30,13.60
2013,03,20,03,31,9.70
2013,03,20,03,32,10.80
2013,03,20,03,33,15.90
2013,03,20,03,34,10.80
2013,03,20,03,35,14.70
2013,03,20,03,36,9.50
2013,03,20,03,37,10.90
2013,03,20,03,38,13.70
2013,03,20,03,39,12.10
2013,03,20,03,40,10.70
2013,03,20,03,41,12.40
2013,03,20,03,42,11.40
2013,03,20,03,43,12.10
2013,03,20,03,44,15.30
2013,03,20,03,45,12.20
2013,03,20,03,46,11.60
2013,03,20,03,47,10.80
2013,03,20,03,48,12.20
2013,03,20,03,49,11.00
2013,03,20,03,50,11.50
2013,03,20,03,51,12.50
2013,03,20,03,52,8.20
2013,03,20,03,53,4.70
2013,03,20,03,54,15.00
2013,03,20,03,55,12.40
2013,03,20,03,56,14.20
2013,03,20,03,57,14.40
2013,03,20,03,58,11.50
2013,03,20,03,59,13.30
2013,03,20,04,00,15.50
2013,03,20,04,01,12.20
2013,03,20,04,02,5.30
2013,03,20,04,03,8.50
2013,03,20,04,04,10.80
2013,03,20,04,05,13.00
2013,03,20,04,06,11.80
2013,03,20,04,07,10.40
2013,03,20,04,08,16.30
2013,03,20,04,09,10.50
2013,03,20,04,10,10.10
2013,03,20,04,11,11.10
2013,03,20,04,12,14.40
2013,03,20,04,13,11.80
2013,03,20,04,14,18.50
2013,03,20,04,15,12.20
2013,03,20,04,16,14.30
2013,03,20,04,17,16.20
2013,03,20,04,18,11.30
2013,03,20,04,19,11.40
2013,03,20,04,20,6.00
2013,03,20,04,21,8.40
2013,03,20,04,22,13.00
2013,03,20,04,23,12.70
2013,03,20,04,24,14.60
2013,03,20,04,25,12.00
2013,03,20,04,26,19.40
2013,03,20,04,27,11.00
2013,03,20,04,28,14.20
2013,03,20,04,29,11.60
2013,03,20,04,30,12.50
2013,03,20,04,31,8.00
2013,03,20,04,32,11.90
2013,03,20,04,33,11.60
2013,03,20,04,34,8.40
2013,03,20,04,35,13.70
2013,03,20,04,36,13.30
2013,03,20,04,37,8.40
2013,03,20,04,38,13.00
2013,03,20,04,39,9.70
2013,03,20,04,40,9.80
2013,03,20,04,41,10.40
2013,03,20,04,42,11.50
2013,03,20,04,43,14.30
2013,03,20,04,44,13.60
2013,03,20,04,45,14.80
2013,03,20,04,46,11.90
2013,03,20,04,47,13.30
2013,03,20,04,48,8.20
2013,03,20,04,49,9.20
2013,03,20,04,50,11.50
2013,03,20,04,51,14.90
2013,03,20,04,52,13.40
2013,03,20,04,53,10.20
2013,03,20,04,54,12.70
2013,03,20,04,55,11.10
2013,03,20,04,56,6.40
2013,03,20,04,57,9.00
2013,03,20,04,58,8.40
2013,03,20,04,59,11.40
2013,03,20,05,00,16.10
2013,03,20,05,01,9.60
2013,03,20,05,02,8.00
2013,03,20,05,03,7.60
2013,03,20,05,04,10.50
2013,03,20,05,05,7.80
2013,03,20,05,06,11.10
2013,03,20,05,07,11.00
2013,03,20,05,08,12.20
2013,03,20,05,09,10.70
2013,03,20,05,10,9.60
2013,03,20,05,11,11.60
2013,03,20,05,12,7.10
2013,03,20,05,13,8.90
2013,03,20,05,14,12.10
2013,03,20,05,15,8.70
2013,03,20,05,16,5.50
2013,03,20,05,17,7.30
2013,03,20,05,18,14.50
2013,03,20,05,19,9.10
2013,03,20,05,20,7.30
2013,03,20,05,21,9.10
2013,03,20,05,22,8.40
2013,03,20,05,23,9.40
2013,03,20,05,24,9.00
2013,03,20,05,25,14.50
2013,03,20,05,26,10.10
2013,03,20,05,27,13.00
2013,03,20,05,28,12.00
2013,03,20,05,29,19.30
2013,03,20,05,30,14.10
2013,03,20,05,31,15.60
2013,03,20,05,32,9.50
2013,03,20,05,33,13.00
2013,03,20,05,34,7.60
2013,03,20,05,35,11.10
2013,03,20,05,36,13.90
2013,03,20,05,37,14.20
2013,03,20,05,38,7.20
2013,03,20,05,39,8.60
2013,03,20,05,40,9.80
2013,03,20,05,41,7.40
2013,03,20,05,42,7.80
2013,03,20,05,43,7.90
2013,03,20,05,44,11.00
2013,03,20,05,45,9.10
2013,03,20,05,46,8.80
2013,03,20,05,47,7.40
2013,03,20,05,48,9.30
2013,03,20,05,49,10.20
2013,03,20,05,50,10.30
2013,03,20,05,51,10.30
2013,03,20,05,52,10.90
2013,03,20,05,53,11.00
2013,03,20,05,54,11.00
2013,03,20,05,55,9.80
2013,03,20,05,56,5.60
2013,03,20,05,57,1.90
2013,03,20,05,58,7.50
2013,03,20,05,59,9.10
2013,03,20,06,00,6.80
2013,03,20,06,01,7.70
2013,03,20,06,02,6.60
2013,03,20,06,03,1.60
2013,03,20,06,04,7.00
2013,03,20,06,05,8.10
2013,03,20,06,06,6.40
2013,03,20,06,07,5.10
2013,03,20,06,08,7.20
2013,03,20,06,09,4.30
2013,03,20,06,10,3.90
2013,03,20,06,11,7.50
2013,03,20,06,12,5.00
2013,03,20,06,13,5.70
2013,03,20,06,14,6.50
2013,03,20,06,15,3.60
2013,03,20,06,16,4.60
2013,03,20,06,17,4.40
2013,03,20,06,18,0.90
2013,03,20,06,19,5.10
2013,03,20,06,20,6.40
2013,03,20,06,21,1.70
2013,03,20,06,22,4.90
2013,03,20,06,23,5.60
2013,03,20,06,24,5.10
2013,03,20,06,25,5.60
2013,03,20,06,26,6.30
2013,03,20,06,27,1.40
2013,03,20,06,28,6.10
2013,03,20,06,29,7.80
2013,03,20,06,30,4.80
2013,03,20,06,31,6.40
2013,03,20,06,32,4.30
2013,03,20,06,33,2.10
2013,03,20,06,34,1.50
2013,03,20,06,35,2.90
2013,03,20,06,36,2.70
2013,03,20,06,37,1.80
2013,03,20,06,38,2.10
2013,03,20,06,39,0.80
2013,03,20,06,40,1.80
2013,03,20,06,41,6.70
2013,03,20,06,42,5.20
2013,03,20,06,43,6.10
2013,03,20,06,44,6.40
2013,03,20,06,45,11.50
2013,03,20,06,46,5.10
2013,03,20,06,47,2.10
2013,03,20,06,48,7.30
2013,03,20,06,49,3.40
2013,03,20,06,50,1.30
2013,03,20,06,51,0.90
2013,03,20,06,52,2.70
2013,03,20,06,53,4.80
2013,03,20,06,54,3.90
2013,03,20,06,55,2.20
2013,03,20,06,56,3.00
2013,03,20,06,57,4.40
2013,03,20,06,58,3.50
2013,03,20,06,59,6.20
2013,03,20,07,00,3.70
2013,03,20,07,01,4.50
2013,03,20,07,02,4.50
2013,03,20,07,03,6.20
2013,03,20,07,04,7.50
2013,03,20,07,05,6.40
2013,03,20,07,06,8.90
2013,03,20,07,07,6.00
2013,03,20,07,08,4.50
2013,03,20,07,09,2.30
2013,03,20,07,10,0.70
2013,03,20,07,11,0.00
2013,03,20,07,12,0.10
2013,03,20,07,13,0.40
2013,03,20,07,14,0.30
2013,03,20,07,15,0.10
2013,03,20,07,16,0.20
2013,03,20,07,17,2.60
2013,03,20,07,18,2.00
2013,03,20,07,19,0.60
2013,03,20,07,20,5.10
2013,03,20,07,21,0.20
2013,03,20,07,22,0.00
2013,03,20,07,23,0.30
2013,03,20,07,24,0.60
2013,03,20,07,25,0.90
2013,03,20,07,26,1.70
2013,03,20,07,27,0.80
2013,03,20,07,28,3.80
2013,03,20,07,29,0.50
2013,03,20,07,30,0.50
2013,03,20,07,31,1.00
2013,03,20,07,32,1.50
2013,03,20,07,33,1.30
2013,03,20,07,34,1.20
2013,03,20,07,35,1.20
2013,03,20,07,36,5.10
2013,03,20,07,37,1.60
2013,03,20,07,38,2.90
2013,03,20,07,39,5.60
2013,03,20,07,40,3.10
2013,03,20,07,41,1.20
2013,03,20,07,42,2.50
2013,03,20,07,43,2.30
2013,03,20,07,44,1.30
2013,03,20,07,45,4.20
2013,03,20,07,46,2.40
2013,03,20,07,47,0.30
2013,03,20,07,48,4.70
2013,03,20,07,49,0.60
2013,03,20,07,50,2.50
2013,03,20,07,51,3.80
2013,03,20,07,52,0.60
2013,03,20,07,53,0.60
2013,03,20,07,54,0.70
2013,03,20,07,55,3.00
2013,03,20,07,56,1.60
2013,03,20,07,57,1.60
2013,03,20,07,58,1.60
2013,03,20,07,59,0.10
2013,03,20,08,00,0.00
2013,03,20,08,01,0.10
2013,03,20,08,02,0.20
2013,03,20,08,03,1.60
2013,03,20,08,04,0.50
2013,03,20,08,05,1.30
2013,03,20,08,06,0.20
2013,03,20,08,07,0.30
2013,03,20,08,08,1.90
2013,03,20,08,09,0.80
2013,03,20,08,10,1.50
2013,03,20,08,11,1.10
2013,03,20,08,12,0.20
2013,03,20,08,13,1.00
2013,03,20,08,14,0.20
2013,03,20,08,15,0.40
2013,03,20,08,16,0.10
2013,03,20,08,17,0.50
2013,03,20,08,18,0.10
2013,03,20,08,19,0.00
2013,03,20,08,20,0.10
2013,03,20,08,21,0.00
2013,03,20,08,22,0.00
2013,03,20,08,23,0.00
2013,03,20,08,24,0.00
2013,03,20,08,25,0.00
2013,03,20,08,26,0.00
2013,03,20,08,27,0.00
2013,03,20,08,28,0.20
2013,03,20,08,29,0.00
2013,03,20,08,30,0.00
2013,03,20,08,31,0.00
2013,03,20,08,32,0.00
2013,03,20,08,33,0.00
2013,03,20,08,34,0.00
2013,03,20,08,35,0.10
2013,03,20,08,36,0.00
2013,03,20,08,37,0.00
2013,03,20,08,38,0.60
2013,03,20,08,39,0.00
2013,03,20,08,40,0.00
2013,03,20,08,41,0.60
2013,03,20,08,42,2.20
2013,03,20,08,43,5.60
2013,03,20,08,44,1.80
2013,03,20,08,45,1.20
2013,03,20,08,46,2.50
2013,03,20,08,47,1.10
2013,03,20,08,48,0.00
2013,03,20,08,49,0.00
2013,03,20,08,50,0.00
2013,03,20,08,51,0.00
2013,03,20,08,52,0.90
2013,03,20,08,53,1.00
2013,03,20,08,54,2.60
2013,03,20,08,55,4.20
2013,03,20,08,56,0.60
2013,03,20,08,57,0.30
2013,03,20,08,58,1.90
2013,03,20,08,59,1.40
2013,03,20,09,00,3.60
2013,03,20,09,01,6.40
2013,03,20,09,02,5.30
2013,03,20,09,03,5.80
2013,03,20,09,04,1.10
2013,03,20,09,05,5.50
2013,03,20,09,06,3.40
2013,03,20,09,07,2.40
2013,03,20,09,08,4.50
2013,03,20,09,09,2.80
2013,03,20,09,10,0.60
2013,03,20,09,11,4.30
2013,03,20,09,12,5.30
2013,03,20,09,13,6.10
2013,03,20,09,14,5.40
2013,03,20,09,15,12.50
2013,03,20,09,16,10.30
2013,03,20,09,17,12.50
2013,03,20,09,18,7.20
2013,03,20,09,19,11.30
2013,03,20,09,20,7.70
2013,03,20,09,21,6.40
2013,03,20,09,22,8.90
2013,03,20,09,23,12.20
2013,03,20,09,24,10.80
2013,03,20,09,25,10.00
2013,03,20,09,26,16.40
2013,03,20,09,27,10.60
2013,03,20,09,28,13.50
2013,03,20,09,29,12.20
2013,03,20,09,30,10.40
2013,03,20,09,31,11.70
2013,03,20,09,32,6.20
2013,03,20,09,33,7.70
2013,03,20,09,34,9.90
2013,03,20,09,35,7.70
2013,03,20,09,36,12.40
2013,03,20,09,37,14.20
2013,03,20,09,38,12.00
2013,03,20,09,39,4.20
2013,03,20,09,40,7.80
2013,03,20,09,41,10.60
2013,03,20,09,42,11.80
2013,03,20,09,43,9.10
2013,03,20,09,44,10.00
2013,03,20,09,45,16.90
2013,03,20,09,46,14.10
2013,03,20,09,47,14.50
2013,03,20,09,48,11.80
2013,03,20,09,49,15.90
2013,03,20,09,50,18.40
2013,03,20,09,51,14.20
2013,03,20,09,52,24.70
2013,03,20,09,53,23.10
2013,03,20,09,54,23.80
2013,03,20,09,55,20.10
2013,03,20,09,56,23.70
2013,03,20,09,57,14.90
2013,03,20,09,58,11.00
2013,03,20,09,59,17.80
2013,03,20,10,00,18.00
2013,03,20,10,01,11.30
2013,03,20,10,02,13.40
2013,03,20,10,03,19.50
2013,03,20,10,04,14.20
2013,03,20,10,05,14.70
2013,03,20,10,06,10.10
2013,03,20,10,07,20.50
2013,03,20,10,08,18.70
2013,03,20,10,09,11.50
2013,03,20,10,10,12.70
2013,03,20,10,11,13.60
2013,03,20,10,12,9.80
2013,03,20,10,13,15.20
2013,03,20,10,14,9.30
2013,03,20,10,15,11.30
2013,03,20,10,16,12.30
2013,03,20,10,17,22.30
2013,03,20,10,18,20.30
2013,03,20,10,19,25.20
2013,03,20,10,20,16.40
2013,03,20,10,21,15.10
2013,03,20,10,22,25.70
2013,03,20,10,23,21.90
2013,03,20,10,24,22.00
2013,03,20,10,25,17.30
2013,03,20,10,26,21.40
2013,03,20,10,27,19.70
2013,03,20,10,28,20.50
2013,03,20,10,29,11.30
2013,03,20,10,30,19.70
2013,03,20,10,31,15.60
2013,03,20,10,32,17.90
2013,03,20,10,33,20.80
2013,03,20,10,34,26.20
2013,03,20,10,35,16.20
2013,03,20,10,36,16.70
2013,03,20,10,37,22.80
2013,03,20,10,38,22.30
2013,03,20,10,39,22.40
2013,03,20,10,40,19.20
2013,03,20,10,41,14.30
2013,03,20,10,42,17.20
2013,03,20,10,43,21.70
2013,03,20,10,44,19.10
2013,03,20,10,45,18.60
2013,03,20,10,46,13.70
2013,03,20,10,47,17.40
2013,03,20,10,48,17.40
2013,03,20,10,49,26.00
2013,03,20,10,50,20.60
2013,03,20,10,51,24.30
2013,03,20,10,52,13.80
2013,03,20,10,53,26.30
2013,03,20,10,54,21.50
2013,03,20,10,55,18.10
2013,03,20,10,56,29.90
2013,03,20,10,57,23.00
2013,03,20,10,58,20.40
2013,03,20,10,59,15.00
2013,03,20,11,00,21.40
2013,03,20,11,01,18.30
2013,03,20,11,02,18.10
2013,03,20,11,03,17.80
2013,03,20,11,04,11.10
2013,03,20,11,05,20.30
2013,03,20,11,06,13.50
2013,03,20,11,07,17.10
2013,03,20,11,08,16.40
2013,03,20,11,09,20.70
2013,03,20,11,10,22.50
2013,03,20,11,11,17.50
2013,03,20,11,12,15.90
2013,03,20,11,13,17.50
2013,03,20,11,14,23.70
2013,03,20,11,15,17.40
2013,03,20,11,16,22.40
2013,03,20,11,17,21.60
2013,03,20,11,18,17.10
2013,03,20,11,19,17.50
2013,03,20,11,20,14.50
2013,03,20,11,21,21.10
2013,03,20,11,22,19.30
2013,03,20,11,23,20.90
2013,03,20,11,24,14.20
2013,03,20,11,25,21.60
2013,03,20,11,26,18.50
2013,03,20,11,27,18.40
2013,03,20,11,28,22.00
2013,03,20,11,29,17.60
2013,03,20,11,30,16.80
2013,03,20,11,31,17.40
2013,03,20,11,32,16.00
2013,03,20,11,33,12.10
2013,03,20,11,34,21.30
2013,03,20,11,35,19.20
2013,03,20,11,36,22.50
2013,03,20,11,37,23.40
2013,03,20,11,38,20.70
2013,03,20,11,39,17.20
2013,03,20,11,40,20.80
2013,03,20,11,41,13.10
2013,03,20,11,42,20.20
2013,03,20,11,43,20.20
2013,03,20,11,44,14.30
2013,03,20,11,45,19.60
2013,03,20,11,46,10.90
2013,03,20,11,47,15.80
2013,03,20,11,48,16.10
2013,03,20,11,49,17.30
2013,03,20,11,50,15.90
2013,03,20,11,51,13.30
2013,03,20,11,52,19.60
2013,03,20,11,53,16.20
2013,03,20,11,54,16.80
2013,03,20,11,55,18.40
2013,03,20,11,56,24.30
2013,03,20,11,57,21.90
2013,03,20,11,58,22.00
2013,03,20,11,59,21.30
2013,03,20,12,00,20.20
2013,03,20,12,01,15.00
2013,03,20,12,02,15.30
2013,03,20,12,03,24.90
2013,03,20,12,04,11.70
2013,03,20,12,05,14.80
2013,03,20,12,06,16.20
2013,03,20,12,07,14.80
2013,03,20,12,08,13.80
2013,03,20,12,09,13.90
2013,03,20,12,10,14.80
2013,03,20,12,11,15.50
2013,03,20,12,12,19.20
2013,03,20,12,13,15.50
2013,03,20,12,14,14.60
2013,03,20,12,15,9.00
2013,03,20,12,16,15.10
2013,03,20,12,17,13.70
2013,03,20,12,18,16.60
2013,03,20,12,19,16.30
2013,03,20,12,20,11.90
2013,03,20,12,21,14.60
2013,03,20,12,22,20.00
2013,03,20,12,23,13.80
2013,03,20,12,24,15.70
2013,03,20,12,25,16.10
2013,03,20,12,26,16.20
2013,03,20,12,27,14.60
2013,03,20,12,28,13.60
2013,03,20,12,29,9.70
2013,03,20,12,30,17.50
2013,03,20,12,31,22.50
2013,03,20,12,32,20.40
2013,03,20,12,33,15.30
2013,03,20,12,34,20.80
2013,03,20,12,35,14.80
2013,03,20,12,36,21.00
2013,03,20,12,37,11.50
2013,03,20,12,38,14.10
2013,03,20,12,39,17.20
2013,03,20,12,40,23.30
2013,03,20,12,41,19.30
2013,03,20,12,42,17.70
2013,03,20,12,43,21.60
2013,03,20,12,44,24.50
2013,03,20,12,45,25.80
2013,03,20,12,46,20.10
2013,03,20,12,47,15.10
2013,03,20,12,48,31.00
2013,03,20,12,49,27.10
2013,03,20,12,50,20.60
2013,03,20,12,51,16.60
2013,03,20,12,52,18.90
2013,03,20,12,53,12.80
2013,03,20,12,54,15.10
2013,03,20,12,55,23.10
2013,03,20,12,56,19.10
2013,03,20,12,57,15.60
2013,03,20,12,58,16.80
2013,03,20,12,59,17.50
2013,03,20,13,00,23.10
2013,03,20,13,01,13.90
2013,03,20,13,02,19.80
2013,03,20,13,03,20.60
2013,03,20,13,04,18.60
2013,03,20,13,05,24.30
2013,03,20,13,06,18.70
2013,03,20,13,07,19.60
2013,03,20,13,08,18.50
2013,03,20,13,09,19.80
2013,03,20,13,10,24.20
2013,03,20,13,11,19.60
2013,03,20,13,12,17.30
2013,03,20,13,13,22.60
2013,03,20,13,14,14.20
2013,03,20,13,15,20.20
2013,03,20,13,16,17.00
2013,03,20,13,17,19.90
2013,03,20,13,18,22.20
2013,03,20,13,19,14.60
2013,03,20,13,20,17.10
2013,03,20,13,21,20.50
2013,03,20,13,22,21.60
2013,03,20,13,23,17.90
2013,03,20,13,24,21.50
2013,03,20,13,25,20.80
2013,03,20,13,26,21.50
2013,03,20,13,27,18.70
2013,03,20,13,28,19.20
2013,03,20,13,29,18.30
2013,03,20,13,30,18.00
2013,03,20,13,31,12.30
2013,03,20,13,32,15.50
2013,03,20,13,33,29.40
2013,03,20,13,34,22.90
2013,03,20,13,35,15.90
2013,03,20,13,36,21.30
2013,03,20,13,37,16.50
2013,03,20,13,38,15.10
2013,03,20,13,39,14.60
2013,03,20,13,40,15.00
2013,03,20,13,41,19.50
2013,03,20,13,42,16.10
2013,03,20,13,43,22.00
2013,03,20,13,44,18.90
2013,03,20,13,45,20.50
2013,03,20,13,46,16.90
2013,03,20,13,47,20.40
2013,03,20,13,48,22.50
2013,03,20,13,49,23.40
2013,03,20,13,50,18.80
2013,03,20,13,51,18.50
2013,03,20,13,52,14.20
2013,03,20,13,53,22.40
2013,03,20,13,54,17.70
2013,03,20,13,55,18.40
2013,03,20,13,56,20.10
2013,03,20,13,57,20.00
2013,03,20,13,58,14.30
2013,03,20,13,59,15.20
2013,03,20,14,00,22.30
2013,03,20,14,01,20.00
2013,03,20,14,02,23.00
2013,03,20,14,03,22.60
2013,03,20,14,04,22.40
2013,03,20,14,05,21.40
2013,03,20,14,06,14.30
2013,03,20,14,07,19.20
2013,03,20,14,08,17.60
2013,03,20,14,09,23.90
2013,03,20,14,10,23.00
2013,03,20,14,11,19.50
2013,03,20,14,12,16.70
2013,03,20,14,13,16.00
2013,03,20,14,14,20.30
2013,03,20,14,15,20.30
2013,03,20,14,16,23.70
2013,03,20,14,17,23.10
2013,03,20,14,18,27.50
2013,03,20,14,19,15.90
2013,03,20,14,20,20.80
2013,03,20,14,21,20.30
2013,03,20,14,22,22.50
2013,03,20,14,23,23.40
2013,03,20,14,24,16.90
2013,03,20,14,25,20.80
2013,03,20,14,26,28.00
2013,03,20,14,27,18.50
2013,03,20,14,28,29.10
2013,03,20,14,29,31.10
2013,03,20,14,30,25.50
2013,03,20,14,31,19.90
2013,03,20,14,32,25.80
2013,03,20,14,33,21.60
2013,03,20,14,34,15.10
2013,03,20,14,35,28.60
2013,03,20,14,36,23.70
2013,03,20,14,37,29.40
2013,03,20,14,38,22.00
2013,03,20,14,39,24.90
2013,03,20,14,40,26.70
2013,03,20,14,41,19.30
2013,03,20,14,42,20.60
2013,03,20,14,43,19.70
2013,03,20,14,44,27.20
2013,03,20,14,45,20.10
2013,03,20,14,46,20.20
2013,03,20,14,47,26.40
2013,03,20,14,48,24.80
2013,03,20,14,49,26.60
2013,03,20,14,50,17.50
2013,03,20,14,51,23.60
2013,03,20,14,52,19.70
2013,03,20,14,53,26.60
2013,03,20,14,54,21.50
2013,03,20,14,55,22.90
2013,03,20,14,56,21.70
2013,03,20,14,57,16.90
2013,03,20,14,58,22.60
2013,03,20,14,59,23.20
2013,03,20,15,00,19.60
2013,03,20,15,01,22.80
2013,03,20,15,02,22.90
2013,03,20,15,03,20.60
2013,03,20,15,04,21.10
2013,03,20,15,05,18.80
2013,03,20,15,06,22.80
2013,03,20,15,07,27.00
2013,03,20,15,08,21.00
2013,03,20,15,09,19.90
2013,03,20,15,10,21.90
2013,03,20,15,11,16.40
2013,03,20,15,12,23.30
2013,03,20,15,13,17.90
2013,03,20,15,14,24.90
2013,03,20,15,15,28.10
2013,03,20,15,16,24.10
2013,03,20,15,17,31.30
2013,03,20,15,18,28.50
2013,03,20,15,19,33.40
2013,03,20,15,20,29.60
2013,03,20,15,21,30.90
2013,03,20,15,22,30.10
2013,03,20,15,23,24.80
2013,03,20,15,24,17.30
2013,03,20,15,25,21.60
2013,03,20,15,26,29.20
2013,03,20,15,27,33.40
2013,03,20,15,28,28.20
2013,03,20,15,29,27.90
2013,03,20,15,30,22.90
2013,03,20,15,31,28.30
2013,03,20,15,32,26.70
2013,03,20,15,33,29.00
2013,03,20,15,34,25.70
2013,03,20,15,35,33.80
2013,03,20,15,36,22.00
2013,03,20,15,37,25.50
2013,03,20,15,38,27.90
2013,03,20,15,39,29.30
2013,03,20,15,40,29.50
2013,03,20,15,41,22.80
2013,03,20,15,42,18.90
2013,03,20,15,43,21.20
2013,03,20,15,44,24.50
2013,03,20,15,45,29.40
2013,03,20,15,46,24.10
2013,03,20,15,47,21.10
2013,03,20,15,48,25.40
2013,03,20,15,49,24.40
2013,03,20,15,50,21.60
2013,03,20,15,51,20.40
2013,03,20,15,52,33.10
2013,03,20,15,53,35.60
2013,03,20,15,54,16.70
2013,03,20,15,55,32.80
2013,03,20,15,56,30.50
2013,03,20,15,57,30.30
2013,03,20,15,58,27.20
2013,03,20,15,59,19.00
2013,03,20,16,00,28.30
2013,03,20,16,01,27.00
2013,03,20,16,02,28.00
2013,03,20,16,03,29.20
2013,03,20,16,04,21.50
2013,03,20,16,05,30.30
2013,03,20,16,06,23.40
2013,03,20,16,07,19.70
2013,03,20,16,08,25.70
2013,03,20,16,09,30.00
2013,03,20,16,10,26.30
2013,03,20,16,11,24.10
2013,03,20,16,12,25.60
2013,03,20,16,13,29.00
2013,03,20,16,14,32.80
2013,03,20,16,15,23.60
2013,03,20,16,16,33.50
2013,03,20,16,17,26.20
2013,03,20,16,18,21.80
2013,03,20,16,19,31.00
2013,03,20,16,20,28.10
2013,03,20,16,21,27.40
2013,03,20,16,22,27.80
2013,03,20,16,23,32.20
2013,03,20,16,24,27.40
2013,03,20,16,25,26.10
2013,03,20,16,26,24.70
2013,03,20,16,27,24.60
2013,03,20,16,28,24.70
2013,03,20,16,29,21.60
2013,03,20,16,30,26.20
2013,03,20,16,31,38.00
2013,03,20,16,32,33.10
2013,03,20,16,33,33.70
2013,03,20,16,34,46.20
2013,03,20,16,35,34.20
2013,03,20,16,36,32.30
2013,03,20,16,37,37.10
2013,03,20,16,38,41.60
2013,03,20,16,39,31.50
2013,03,20,16,40,39.10
2013,03,20,16,41,25.70
2013,03,20,16,42,31.20
2013,03,20,16,43,28.60
2013,03,20,16,44,36.60
2013,03,20,16,45,33.60
2013,03,20,16,46,32.20
2013,03,20,16,47,32.70
2013,03,20,16,48,38.40
2013,03,20,16,49,30.60
2013,03,20,16,50,35.60
2013,03,20,16,51,38.30
2013,03,20,16,52,33.20
2013,03,20,16,53,27.30
2013,03,20,16,54,36.30
2013,03,20,16,55,39.70
2013,03,20,16,56,28.70
2013,03,20,16,57,24.00
2013,03,20,16,58,27.80
2013,03,20,16,59,28.40
2013,03,20,17,00,49.10
2013,03,20,17,01,39.20
2013,03,20,17,02,33.20
2013,03,20,17,03,28.50
2013,03,20,17,04,27.80
2013,03,20,17,05,27.00
2013,03,20,17,06,20.50
2013,03,20,17,07,27.60
2013,03,20,17,08,31.10
2013,03,20,17,09,39.90
2013,03,20,17,10,39.10
2013,03,20,17,11,24.30
2013,03,20,17,12,30.40
2013,03,20,17,13,30.00
2013,03,20,17,14,33.50
2013,03,20,17,15,26.70
2013,03,20,17,16,31.70
2013,03,20,17,17,29.00
2013,03,20,17,18,23.30
2013,03,20,17,19,29.90
2013,03,20,17,20,36.80
2013,03,20,17,21,36.40
2013,03,20,17,22,34.10
2013,03,20,17,23,31.10
2013,03,20,17,24,21.60
2013,03,20,17,25,31.20
2013,03,20,17,26,27.90
2013,03,20,17,27,26.60
2013,03,20,17,28,29.20
2013,03,20,17,29,25.10
2013,03,20,17,30,39.60
2013,03,20,17,31,41.80
2013,03,20,17,32,31.40
2013,03,20,17,33,30.40